CW1662 Weather Reports


Display with metric or nautical units.
time (UTC)temp
F
wind
direction
speed
MPH
gust
MPH
rain 1hr
in
rain 24hr
in
rain mn
in
humidity
%
barometer
mb
20260904181352 88 231 1.0 3.0 0.00 0.53 0.00 69 1012.8
20260904180836 88 232 0.0 4.0 0.00 0.53 0.00 71 1012.8
20260904180340 88 194 1.0 5.0 0.00 0.53 0.00 72 1012.7
20260904175829 88 200 3.0 5.0 0.00 0.53 0.00 71 1012.8
20260904175334 88 200 1.0 4.0 0.00 0.53 0.00 72 1012.7
20260904174837 87 195 0.0 4.0 0.00 0.53 0.00 71 1012.8
20260904174402 87 197 1.0 4.0 0.00 0.53 0.00 72 1012.9
20260904173825 86 311 0.0 4.0 0.00 0.53 0.00 73 1013.0
20260904173330 87 264 1.0 3.0 0.00 0.53 0.00 73 1013.0
20260904172834 87 249 0.0 4.0 0.00 0.53 0.00 73 1012.9
20260904172338 87 249 0.0 4.0 0.00 0.53 0.00 72 1013.0
20260904171843 87 258 0.0 4.0 0.00 0.53 0.00 74 1013.1
20260904171327 86 221 1.0 5.0 0.00 0.53 0.00 73 1013.1
20260904170852 86 188 2.0 5.0 0.00 0.53 0.00 73 1013.3
20260904170335 86 266 2.0 6.0 0.00 0.53 0.00 74 1013.3
20260904165840 86 338 1.0 6.0 0.00 0.53 0.00 73 1013.2
20260904165327 86 207 1.0 5.0 0.00 0.53 0.00 73 1013.3
20260904164851 86 194 1.0 6.0 0.00 0.53 0.00 74 1013.4
20260904164337 86 273 2.0 6.0 0.00 0.53 0.00 74 1013.4
20260904163902 85 275 1.0 5.0 0.00 0.53 0.00 75 1013.4
20260904163326 85 275 0.0 5.0 0.00 0.53 0.00 72 1013.6
20260904162850 85 252 2.0 4.0 0.00 0.53 0.00 73 1013.6
20260904162333 85 254 2.0 4.0 0.00 0.53 0.00 74 1013.8
20260904161837 85 250 1.0 4.0 0.00 0.53 0.00 75 1013.8
20260904161342 84 196 1.0 5.0 0.00 0.53 0.00 76 1013.8
20260904160826 84 196 2.0 5.0 0.00 0.53 0.00 74 1013.8
20260904160334 84 217 1.0 5.0 0.00 0.53 0.00 76 1013.8
20260904155839 84 265 1.0 5.0 0.00 0.53 0.00 75 1013.8
20260904155326 84 261 1.0 5.0 0.00 0.53 0.00 76 1013.8
20260904154831 84 267 1.0 5.0 0.00 0.53 0.00 76 1013.9
20260904154335 84 223 1.0 4.0 0.00 0.55 0.00 77 1013.9
20260904153900 83 257 1.0 3.0 0.00 0.55 0.00 77 1013.8
20260904153403 83 257 1.0 5.0 0.00 0.55 0.00 76 1013.7
20260904152827 83 245 0.0 5.0 0.00 0.55 0.00 76 1013.9
20260904152351 83 198 3.0 4.0 0.00 0.55 0.00 77 1014.0
20260904151854 83 340 0.0 4.0 0.00 0.55 0.00 75 1014.1
20260904151338 83 337 1.0 3.0 0.00 0.55 0.00 74 1014.2
20260904150842 83 282 1.0 3.0 0.00 0.55 0.00 77 1014.1
20260904150346 83 232 0.0 2.0 0.00 0.55 0.00 76 1014.2
20260904145830 83 332 0.0 3.0 0.00 0.55 0.00 78 1014.1
20260904145334 82 332 0.0 3.0 0.00 0.55 0.00 76 1014.1
20260904144839 82 285 1.0 3.0 0.00 0.55 0.00 78 1014.0
20260904144403 82 42 0.0 4.0 0.00 0.74 0.00 79 1014.0
20260904143827 81 42 2.0 4.0 0.00 0.74 0.00 77 1014.0
20260904143335 81 308 0.0 4.0 0.00 0.74 0.00 77 1014.0
20260904142840 81 271 0.0 3.0 0.00 0.74 0.00 79 1014.0
20260904142343 80 271 1.0 3.0 0.00 0.74 0.00 79 1014.1
20260904141828 80 271 2.0 3.0 0.00 0.74 0.00 81 1014.2
20260904141333 80 271 1.0 3.0 0.00 0.74 0.00 81 1014.2
20260904140857 80 271 0.0 4.0 0.00 0.74 0.00 82 1014.1
20260904140322 80 271 1.0 4.0 0.00 0.74 0.00 83 1014.1
20260904135830 79 271 2.0 3.0 0.00 0.74 0.00 83 1014.1
20260904135334 79 271 0.0 2.0 0.00 0.74 0.00 84 1014.2
20260904134838 78 271 2.0 2.0 0.00 0.74 0.00 85 1014.3
20260904134343 78 271 0.0 0.0 0.00 0.74 0.00 85 1014.2
20260904133848 78 271 0.0 2.0 0.00 0.74 0.00 85 1014.2
20260904133335 78 271 0.0 2.0 0.00 0.74 0.00 85 1014.3
20260904132840 78 271 1.0 2.0 0.00 0.74 0.00 86 1014.2
20260904132343 78 271 1.0 3.0 0.00 0.74 0.00 88 1014.1
20260904131828 78 355 1.0 3.0 0.00 0.74 0.00 89 1014.0
20260904131332 77 355 0.0 3.0 0.00 0.74 0.00 90 1014.0
20260904130837 77 355 1.0 4.0 0.00 0.74 0.00 92 1014.1
20260904130342 77 355 1.0 4.0 0.00 0.74 0.00 93 1013.9
20260904125826 76 355 2.0 3.0 0.00 0.74 0.00 94 1014.0
20260904125330 76 355 1.0 3.0 0.00 0.74 0.00 94 1013.9
20260904124854 75 84 0.0 0.0 0.00 0.74 0.00 95 1013.8
20260904124358 75 84 0.0 0.0 0.00 0.76 0.00 95 1013.8
20260904123841 75 84 0.0 0.0 0.00 0.76 0.00 95 1013.6
20260904123330 74 84 0.0 0.0 0.00 0.76 0.00 96 1013.6
20260904122835 74 84 0.0 0.0 0.00 0.76 0.00 96 1013.8
20260904122338 74 84 0.0 0.0 0.00 0.76 0.00 96 1013.8
20260904121843 73 84 0.0 0.0 0.00 0.76 0.00 96 1013.7
20260904121347 73 84 0.0 0.0 0.00 0.76 0.00 95 1013.7
20260904120831 73 84 0.0 0.0 0.00 0.76 0.00 96 1013.7
20260904120335 73 84 0.0 0.0 0.00 0.76 0.00 96 1013.9
20260904115843 73 84 0.0 0.0 0.00 0.76 0.00 96 1013.8
20260904115326 73 84 0.0 0.0 0.00 0.76 0.00 95 1013.9
20260904114851 72 84 0.0 0.0 0.00 0.76 0.00 95 1013.8
20260904114335 72 84 0.0 0.0 0.00 0.79 0.00 95 1013.8
20260904113859 72 84 0.0 0.0 0.00 0.79 0.00 95 1013.8
20260904113343 72 84 0.0 0.0 0.00 0.79 0.00 95 1013.6
20260904112832 72 84 0.0 0.0 0.00 0.79 0.00 95 1013.6
20260904112335 72 84 0.0 0.0 0.00 0.79 0.00 95 1013.5
20260904111859 72 84 0.0 0.0 0.00 0.79 0.00 95 1013.4
20260904111326 72 84 0.0 0.0 0.00 0.79 0.00 95 1013.5
20260904110830 72 84 0.0 0.0 0.00 0.79 0.00 95 1013.4
20260904110335 71 84 0.0 0.0 0.00 0.79 0.00 95 1013.2
20260904105839 71 84 0.0 0.0 0.00 0.79 0.00 95 1013.4
20260904105402 71 84 0.0 0.0 0.00 0.79 0.00 95 1013.6
20260904104826 72 84 0.0 0.0 0.00 0.79 0.00 95 1013.4
20260904104330 72 84 0.0 0.0 0.00 0.79 0.00 95 1013.4
20260904103855 72 84 0.0 0.0 0.00 0.79 0.00 95 1013.3
20260904103339 72 84 0.0 0.0 0.00 0.79 0.00 95 1013.3
20260904102903 72 84 0.0 0.0 0.00 0.79 0.00 95 1013.0
20260904102326 72 84 0.0 0.0 0.00 0.79 0.00 95 1013.1
20260904101850 72 84 0.0 0.0 0.00 0.79 0.00 95 1013.1
20260904101337 72 84 0.0 0.0 0.00 0.79 0.00 95 1013.0
20260904100824 72 84 0.0 0.0 0.00 0.79 0.00 95 1013.0
20260904100329 72 84 0.0 0.0 0.00 0.79 0.00 95 1013.2
20260904095854 72 84 0.0 0.0 0.00 0.79 0.00 95 1013.2
20260904095335 72 84 0.0 0.0 0.00 0.79 0.00 95 1013.1
20260904094843 72 84 0.0 0.0 0.00 0.79 0.00 95 1013.2
20260904094347 72 84 0.0 0.0 0.00 0.79 0.00 95 1013.0
20260904093830 72 84 0.0 0.0 0.00 0.79 0.00 95 1013.0
20260904093337 72 84 0.0 0.0 0.00 0.79 0.00 95 1013.2
20260904092842 72 84 0.0 0.0 0.00 0.79 0.00 95 1013.2
20260904092326 72 84 0.0 3.0 0.00 0.79 0.00 95 1013.2
20260904091830 72 84 0.0 3.0 0.00 0.79 0.00 95 1013.1
20260904091354 73 86 0.0 2.0 0.00 0.79 0.00 95 1013.1
20260904090841 72 86 0.0 2.0 0.00 0.79 0.00 95 1013.1
20260904090329 73 54 0.0 2.0 0.00 0.79 0.00 95 1012.9
20260904085833 72 54 1.0 2.0 0.00 0.79 0.00 95 1013.0
20260904085336 72 54 0.0 2.0 0.00 0.79 0.00 95 1012.9
20260904084822 72 54 0.0 2.0 0.00 0.79 0.00 95 1012.9
20260904084330 72 54 1.0 2.0 0.00 0.79 0.00 95 1012.9
20260904083835 72 54 0.0 1.0 0.00 0.79 0.00 95 1013.0
20260904083359 72 54 0.0 0.0 0.00 0.79 0.00 95 1013.0
20260904082843 72 54 0.0 1.0 0.00 0.79 0.00 95 1013.0
20260904082345 72 54 1.0 2.0 0.00 0.79 0.00 95 1013.0
20260904081832 72 54 1.0 5.0 0.00 0.79 0.00 95 1013.1
20260904081336 72 54 3.0 5.0 0.00 0.79 0.00 95 1013.1
20260904080825 72 125 0.0 1.0 0.00 0.79 0.00 95 1012.5
20260904080328 72 125 0.0 1.0 0.00 0.79 0.00 95 1012.4
20260904075836 72 125 0.0 1.0 0.00 0.79 0.00 95 1012.4
20260904075340 72 125 0.0 1.0 0.00 0.79 0.00 95 1012.3
20260904074844 72 125 0.0 1.0 0.00 0.79 0.00 95 1012.3
20260904074349 72 125 0.0 1.0 0.00 0.79 0.00 95 1012.4
20260904073833 72 125 0.0 1.0 0.00 0.79 0.00 95 1012.4
20260904073337 72 125 0.0 3.0 0.00 0.79 0.00 95 1012.3
20260904072842 72 125 0.0 3.0 0.00 0.79 0.00 94 1012.4
20260904072325 72 161 0.0 3.0 0.00 0.79 0.00 94 1012.4
20260904071831 72 161 1.0 4.0 0.00 0.79 0.00 94 1012.4
20260904071343 72 182 1.0 4.0 0.00 0.79 0.00 94 1012.4
20260904070828 72 186 2.0 4.0 0.00 0.79 0.00 94 1012.3
20260904070332 72 198 2.0 3.0 0.00 0.79 0.00 95 1012.3
20260904065837 72 198 1.0 2.0 0.00 0.79 0.00 94 1012.4
20260904065339 72 198 1.0 3.0 0.00 0.79 0.00 94 1012.2
20260904064826 72 198 1.0 3.0 0.00 0.79 0.00 94 1012.2
20260904064334 72 158 1.0 2.0 0.00 0.79 0.00 94 1012.2
20260904063838 72 158 0.0 2.0 0.00 0.79 0.00 94 1012.2
20260904063403 72 158 0.0 1.0 0.00 0.79 0.00 94 1012.2
20260904062827 72 158 0.0 1.0 0.00 0.79 0.00 94 1012.1
20260904062330 72 158 0.0 3.0 0.00 0.79 0.00 94 1012.1
20260904061838 72 158 1.0 3.0 0.00 0.79 0.00 94 1012.0
20260904061343 72 200 0.0 2.0 0.00 0.79 0.00 94 1011.9
20260904060848 71 200 0.0 1.0 0.00 0.79 0.00 94 1012.0
20260904060331 72 200 0.0 1.0 0.00 0.79 0.00 94 1012.1
20260904055836 71 200 0.0 1.0 0.00 0.79 0.00 94 1012.1
20260904055400 72 200 0.0 1.0 0.00 0.79 0.00 94 1012.1
20260904054843 72 200 0.0 2.0 0.00 0.79 0.00 94 1012.2
20260904054328 72 200 0.0 6.0 0.00 0.79 0.00 94 1012.2
20260904053834 72 200 2.0 6.0 0.00 0.79 0.00 94 1012.2
20260904053337 72 196 3.0 5.0 0.00 0.79 0.00 94 1012.4
20260904052841 72 202 1.0 3.0 0.00 0.79 0.00 94 1012.6
20260904052325 72 202 0.0 3.0 0.00 0.79 0.00 94 1012.7
20260904051849 72 202 0.0 4.0 0.00 0.79 0.00 94 1013.0
20260904051337 72 219 1.0 8.0 0.00 0.79 0.00 94 1013.0
20260904050842 72 196 2.0 8.0 0.00 0.79 0.00 94 1013.3
20260904050346 72 193 4.0 10.0 0.00 0.79 0.00 94 1013.4
20260904045830 72 190 3.0 11.0 0.00 0.79 0.00 94 1013.4
20260904045333 72 195 5.0 11.0 0.00 0.79 0.00 94 1013.3
20260904044857 72 167 5.0 9.0 0.00 0.79 0.00 94 1013.3
20260904044343 72 209 2.0 9.0 0.01 0.79 0.00 94 1013.5
20260904043828 72 202 4.0 6.0 0.01 0.79 0.00 94 1013.5
20260904043332 73 192 2.0 3.0 0.02 0.79 0.00 94 1013.5
20260904042837 73 192 1.0 4.0 0.03 0.79 0.00 94 1013.4
20260904042344 73 192 0.0 4.0 0.03 0.79 0.00 94 1013.2
20260904041828 73 191 2.0 4.0 0.04 0.79 0.00 93 1013.0
20260904041337 73 150 1.0 3.0 0.05 0.79 0.00 94 1013.1
20260904040841 73 150 1.0 3.0 0.05 0.79 0.00 94 1013.4
20260904040326 73 44 0.0 1.0 0.07 0.79 0.00 94 1013.6
20260904035830 73 44 0.0 1.0 0.08 0.79 0.00 94 1013.7
20260904035333 73 44 0.0 3.0 0.09 0.79 0.79 94 1013.8
20260904034836 73 44 0.0 5.0 0.09 0.79 0.79 93 1013.9
20260904034323 73 113 1.0 5.0 0.09 0.78 0.78 93 1013.4
20260904033831 73 62 1.0 4.0 0.10 0.78 0.78 93 1013.5
20260904033336 74 106 0.0 2.0 0.09 0.77 0.77 93 1013.5
20260904032840 74 115 1.0 2.0 0.11 0.76 0.76 93 1014.2
20260904032328 74 32 0.0 1.0 0.11 0.76 0.76 93 1014.6
20260904031831 73 32 0.0 1.0 0.10 0.75 0.75 93 1014.9
20260904031337 74 32 0.0 1.0 0.09 0.74 0.74 93 1015.2
20260904030825 74 32 0.0 1.0 0.09 0.74 0.74 92 1015.4
20260904030350 74 32 0.0 2.0 0.07 0.72 0.72 92 1015.4
20260904025833 74 32 0.0 2.0 0.06 0.71 0.71 92 1015.4
20260904025337 74 32 0.0 2.0 0.05 0.70 0.70 92 1015.4
20260904024842 74 32 0.0 3.0 0.05 0.70 0.70 92 1015.3
20260904024346 74 32 1.0 4.0 0.04 0.69 0.69 92 1015.2
20260904023850 74 355 3.0 4.0 0.03 0.68 0.68 92 1015.3
20260904023333 74 315 0.0 1.0 0.04 0.68 0.68 92 1015.1
20260904022838 74 315 0.0 1.0 0.09 0.65 0.65 92 1014.6
20260904022341 74 315 0.0 2.0 0.31 0.65 0.65 92 1014.2
20260904021830 74 315 1.0 2.0 0.39 0.65 0.65 92 1014.2
20260904021335 74 315 0.0 0.0 0.39 0.65 0.65 91 1013.9
20260904020839 74 315 0.0 1.0 0.39 0.65 0.65 91 1013.9
20260904020327 74 315 0.0 7.0 0.39 0.65 0.65 90 1013.9
20260904015831 74 315 2.0 7.0 0.39 0.65 0.65 90 1013.9
20260904015334 74 317 3.0 7.0 0.39 0.65 0.65 90 1014.0
20260904014840 74 20 3.0 10.0 0.39 0.65 0.65 91 1013.9
20260904014347 74 346 5.0 11.0 0.39 0.65 0.65 90 1013.9
20260904013834 74 20 7.0 18.0 0.39 0.65 0.65 90 1013.7
20260904013339 74 9 10.0 26.0 0.39 0.65 0.65 89 1013.7
20260904012844 75 333 15.0 27.0 0.32 0.58 0.58 87 1014.2
20260904012331 79 309 15.0 27.0 0.09 0.35 0.35 81 1014.7
20260904011858 84 314 14.0 18.0 0.00 0.26 0.26 80 1014.0
20260904011324 84 198 0.0 0.0 0.00 0.26 0.26 83 1012.6
20260904010831 84 198 0.0 0.0 0.00 0.26 0.26 82 1012.6
20260904010338 84 198 0.0 0.0 0.00 0.26 0.26 82 1012.3
20260904005843 84 198 0.0 0.0 0.00 0.26 0.26 82 1012.2
20260904005325 84 198 0.0 1.0 0.00 0.26 0.26 82 1012.3
20260904004833 84 198 0.0 1.0 0.00 0.26 0.26 82 1012.1
20260904004338 84 198 0.0 0.0 0.00 0.26 0.26 82 1012.3
20260904003902 84 198 0.0 0.0 0.00 0.26 0.26 82 1012.5
20260904003326 84 198 0.0 0.0 0.00 0.26 0.26 82 1012.4
20260904002830 85 198 0.0 0.0 0.00 0.26 0.26 82 1012.4
20260904002337 85 198 0.0 0.0 0.00 0.26 0.26 81 1012.5
20260904001825 85 198 0.0 1.0 0.00 0.26 0.26 81 1012.3
20260904001329 85 198 0.0 1.0 0.00 0.26 0.26 81 1012.3
20260904000852 85 198 0.0 1.0 0.00 0.26 0.26 81 1012.6
20260904000340 85 198 0.0 1.0 0.00 0.26 0.26 81 1012.8
20260903235844 85 198 0.0 0.0 0.00 0.26 0.26 81 1013.1
20260903235347 85 198 0.0 0.0 0.00 0.26 0.26 81 1013.0
20260903234831 85 198 0.0 0.0 0.00 0.26 0.26 81 1013.2
20260903234335 85 198 0.0 0.0 0.00 0.26 0.26 80 1013.2
20260903233840 86 198 0.0 0.0 0.00 0.26 0.26 79 1013.2
20260903233325 86 198 0.0 0.0 0.00 0.26 0.26 79 1013.2
20260903232828 86 198 0.0 0.0 0.00 0.26 0.26 78 1012.9
20260903232338 87 198 0.0 0.0 0.00 0.26 0.26 77 1012.9
20260903231825 87 198 0.0 0.0 0.00 0.26 0.26 76 1012.5
20260903231330 87 198 0.0 0.0 0.00 0.26 0.26 75 1012.2
20260903230854 87 198 0.0 0.0 0.00 0.26 0.26 74 1012.0
20260903230338 88 198 0.0 0.0 0.00 0.26 0.26 74 1011.9
20260903225822 88 198 0.0 0.0 0.00 0.26 0.26 73 1012.0
20260903225329 88 198 0.0 0.0 0.00 0.26 0.26 73 1012.2
20260903224834 88 198 0.0 0.0 0.00 0.26 0.26 73 1012.1
20260903224338 88 198 0.0 0.0 0.00 0.26 0.26 73 1012.3
20260903223843 89 198 0.0 0.0 0.00 0.26 0.26 73 1012.2
20260903223327 89 198 0.0 0.0 0.00 0.26 0.26 72 1012.1
20260903222852 90 198 0.0 0.0 0.00 0.26 0.26 72 1012.1
20260903222338 90 198 0.0 2.0 0.00 0.26 0.26 70 1012.1
20260903221822 90 198 0.0 3.0 0.00 0.26 0.26 69 1012.0
20260903221328 90 198 1.0 3.0 0.00 0.26 0.26 69 1011.9
20260903220835 91 198 0.0 2.0 0.00 0.26 0.26 69 1011.9
20260903220322 91 198 0.0 2.0 0.00 0.26 0.26 68 1012.0
20260903215850 91 198 0.0 4.0 0.00 0.26 0.26 69 1011.7
20260903215332 91 198 2.0 4.0 0.00 0.26 0.26 66 1011.6
20260903214836 91 196 1.0 3.0 0.00 0.26 0.26 67 1011.7
20260903214344 91 196 1.0 4.0 0.00 0.26 0.26 69 1011.9
20260903213829 91 196 2.0 4.0 0.00 0.26 0.26 68 1011.9
20260903213333 92 196 2.0 5.0 0.00 0.26 0.26 70 1012.0
20260903212842 92 196 2.0 5.0 0.00 0.26 0.26 68 1012.0
20260903212324 92 196 2.0 3.0 0.00 0.26 0.26 68 1011.9
20260903211832 92 196 2.0 4.0 0.00 0.26 0.26 66 1012.1
20260903211337 92 196 1.0 4.0 0.00 0.26 0.26 69 1012.0
20260903210901 92 196 0.0 3.0 0.00 0.26 0.26 70 1012.0
20260903210324 91 196 1.0 5.0 0.00 0.26 0.26 67 1012.0
20260903205829 92 196 3.0 5.0 0.00 0.26 0.26 67 1012.0
20260903205333 92 186 2.0 5.0 0.00 0.26 0.26 68 1012.0
20260903204837 91 196 0.0 5.0 0.00 0.26 0.26 69 1012.1
20260903204325 91 182 0.0 5.0 0.00 0.26 0.26 68 1012.2
20260903203830 90 192 1.0 3.0 0.00 0.26 0.26 69 1012.2
20260903203338 90 192 1.0 6.0 0.00 0.26 0.26 70 1012.4
20260903202843 90 192 3.0 7.0 0.00 0.26 0.26 69 1012.4
20260903202326 90 190 3.0 7.0 0.00 0.26 0.26 70 1012.5
20260903201831 90 201 3.0 5.0 0.00 0.26 0.26 70 1012.7
20260903201335 89 202 1.0 5.0 0.00 0.26 0.26 71 1012.8
20260903200843 89 237 0.0 8.0 0.00 0.26 0.26 71 1012.8
20260903200328 89 196 2.0 8.0 0.00 0.26 0.26 71 1012.8
20260903195832 89 252 2.0 7.0 0.00 0.26 0.26 71 1012.8
20260903195336 89 234 2.0 7.0 0.00 0.26 0.26 72 1013.0
20260903194840 89 219 1.0 4.0 0.00 0.26 0.26 74 1013.0
20260903194329 88 242 1.0 5.0 0.00 0.26 0.26 74 1013.1
20260903193833 88 221 1.0 6.0 0.00 0.26 0.26 74 1013.1
20260903193338 88 192 3.0 6.0 0.00 0.26 0.26 73 1013.3
20260903192824 88 205 3.0 6.0 0.00 0.26 0.26 75 1013.4
20260903192331 87 180 0.0 5.0 0.00 0.26 0.26 74 1013.5
20260903191839 87 272 1.0 4.0 0.00 0.26 0.26 74 1013.5
20260903191343 87 250 1.0 4.0 0.00 0.26 0.26 74 1013.6
20260903190848 86 263 2.0 6.0 0.00 0.26 0.26 77 1013.8
20260903190331 86 244 1.0 6.0 0.00 0.26 0.26 75 1013.8
20260903185856 86 263 1.0 5.0 0.00 0.26 0.26 77 1013.9
20260903185339 85 272 2.0 5.0 0.00 0.26 0.26 76 1014.0
20260903184843 85 246 2.0 7.0 0.00 0.26 0.26 76 1014.0
20260903184331 85 239 3.0 7.0 0.00 0.27 0.26 81 1014.1
20260903183837 84 200 3.0 5.0 0.00 0.27 0.26 82 1014.1
20260903183404 83 237 2.0 6.0 0.00 0.27 0.26 82 1014.1
20260903182828 83 191 4.0 10.0 0.00 0.27 0.26 81 1014.2
20260903182331 82 195 4.0 10.0 0.00 0.27 0.26 83 1014.2
20260903181838 82 192 4.0 7.0 0.00 0.27 0.26 82 1014.4